SDM058 UUWW-URRP

Flight info

Callsign SDM058
Flight time 2h 38m
Altitude 35000
Route TOGMO3Z TOGMO M56 ABAGI B105 NIMTA/K0857F360 B105 NATIT/K0854F370 DCT WGD/K0856F360 G481 TONGI DCT NEPUT DCT OGURA OGURA2S
Aircraft T204/M-V/N

Departure

Time 2026-04-28 14:28
Airport Vnukovo International Airport (UUWW)

Arrival

Time 2026-04-28 17:06
Airport Platov International Airport (URRP)
Time Latitude Longitude Altitude Speed Heading
2026-04-28 13:07 55.59743 37.29755 699 ft 0 kts 338°
2026-04-28 14:14 55.59742 37.29756 699 ft 1 kts 338°
2026-04-28 14:14 55.59728 37.29766 699 ft 2 kts 339°
2026-04-28 14:15 55.59714 37.29776 699 ft 2 kts 339°
2026-04-28 14:15 55.59700 37.29785 699 ft 2 kts 339°
2026-04-28 14:15 55.59686 37.29796 699 ft 1 kts 339°
2026-04-28 14:15 55.59679 37.29805 699 ft 1 kts 299°
2026-04-28 14:16 55.59678 37.29820 699 ft 0 kts 242°
2026-04-28 14:16 55.59685 37.29832 699 ft 1 kts 206°
2026-04-28 14:16 55.59697 37.29847 699 ft 2 kts 216°
2026-04-28 14:16 55.59707 37.29868 699 ft 2 kts 240°
2026-04-28 14:17 55.59713 37.29892 699 ft 2 kts 246°
2026-04-28 14:17 55.59716 37.29903 699 ft 0 kts 246°
2026-04-28 14:19 55.59715 37.29902 699 ft 0 kts 246°
2026-04-28 14:19 55.59709 37.29876 699 ft 2 kts 239°
2026-04-28 14:20 55.59698 37.29851 699 ft 2 kts 228°
2026-04-28 14:20 55.59673 37.29787 699 ft 8 kts 246°
2026-04-28 14:20 55.59658 37.29721 699 ft 4 kts 248°
2026-04-28 14:20 55.59649 37.29667 699 ft 4 kts 255°
2026-04-28 14:21 55.59643 37.29614 699 ft 4 kts 263°
2026-04-28 14:21 55.59643 37.29560 699 ft 5 kts 277°
2026-04-28 14:21 55.59647 37.29513 699 ft 0 kts 275°
2026-04-28 14:21 55.59650 37.29457 699 ft 0 kts 272°
2026-04-28 14:22 55.59650 37.29446 699 ft 4 kts 275°
2026-04-28 14:22 55.59661 37.29338 699 ft 12 kts 281°
2026-04-28 14:22 55.59669 37.29237 699 ft 5 kts 277°
2026-04-28 14:23 55.59676 37.29159 699 ft 6 kts 280°
2026-04-28 14:23 55.59683 37.29112 699 ft 0 kts 291°
2026-04-28 14:25 55.59710 37.29040 699 ft 11 kts 324°
2026-04-28 14:25 55.59772 37.28959 699 ft 0 kts 304°
2026-04-28 14:25 55.59784 37.28908 699 ft 6 kts 279°
2026-04-28 14:26 55.59772 37.28850 699 ft 1 kts 237°
2026-04-28 14:27 55.59749 37.28778 699 ft 36 kts 246°
2026-04-28 14:27 55.59539 37.27830 699 ft 125 kts 249°
2026-04-28 14:27 55.59166 37.26127 1173 ft 152 kts 251°
2026-04-28 14:28 55.58771 37.24607 1449 ft 152 kts 249°
2026-04-28 14:28 55.58202 37.22800 1872 ft 183 kts 241°
2026-04-28 14:28 55.57442 37.20982 2195 ft 183 kts 240°
2026-04-28 14:28 55.56684 37.19173 2739 ft 187 kts 241°
2026-04-28 14:29 55.55867 37.17187 3242 ft 214 kts 242°
2026-04-28 14:29 55.54834 37.15044 3779 ft 253 kts 226°
2026-04-28 14:29 55.53227 37.13588 4315 ft 270 kts 204°
2026-04-28 14:29 55.51397 37.12779 4843 ft 269 kts 200°
2026-04-28 14:30 55.49536 37.12379 5350 ft 281 kts 182°
2026-04-28 14:30 55.47627 37.13244 5879 ft 291 kts 158°
2026-04-28 14:30 55.45905 37.15184 6420 ft 295 kts 144°
2026-04-28 14:30 55.44240 37.17369 6957 ft 299 kts 143°
2026-04-28 14:31 55.42594 37.19616 7491 ft 299 kts 143°
2026-04-28 14:31 55.40959 37.21842 8005 ft 300 kts 142°
2026-04-28 14:31 55.39285 37.24090 8531 ft 302 kts 143°
2026-04-28 14:31 55.37700 37.26249 9011 ft 274 kts 144°
2026-04-28 14:32 55.36315 37.28184 9443 ft 236 kts 136°
2026-04-28 14:32 55.35205 37.30044 9765 ft 208 kts 139°
2026-04-28 14:32 55.34223 37.31791 10086 ft 195 kts 132°
2026-04-28 14:32 55.33353 37.33431 10339 ft 174 kts 132°
2026-04-28 14:33 55.32530 37.35125 9882 ft 198 kts 126°
2026-04-28 14:33 55.31790 37.37177 10348 ft 185 kts 112°
2026-04-28 14:33 55.31435 37.38924 10573 ft 159 kts 94°
2026-04-28 14:33 55.31293 37.41090 9742 ft 186 kts 87°
2026-04-28 14:34 55.31268 37.45348 10012 ft 182 kts 77°
2026-04-28 14:34 55.31264 37.47702 10150 ft 206 kts 95°
2026-04-28 14:34 55.30767 37.50228 10133 ft 237 kts 108°
2026-04-28 14:35 55.30120 37.53104 10140 ft 269 kts 111°
2026-04-28 14:35 55.29373 37.56317 10128 ft 299 kts 107°
2026-04-28 14:35 55.28653 37.59947 10042 ft 331 kts 104°
2026-04-28 14:35 55.27913 37.63827 10385 ft 337 kts 113°
2026-04-28 14:36 55.26642 37.67057 10641 ft 312 kts 136°
2026-04-28 14:36 55.25061 37.69298 10851 ft 275 kts 147°
2026-04-28 14:36 55.23575 37.71090 11055 ft 242 kts 150°
2026-04-28 14:36 55.22296 37.72625 11307 ft 204 kts 149°
2026-04-28 14:37 55.21257 37.73986 11338 ft 176 kts 143°
2026-04-28 14:37 55.20340 37.75503 10728 ft 191 kts 137°
2026-04-28 14:37 55.19467 37.77124 10491 ft 180 kts 129°
2026-04-28 14:37 55.18676 37.78886 10331 ft 194 kts 127°
2026-04-28 14:38 55.17929 37.80648 10909 ft 175 kts 126°
2026-04-28 14:38 55.17177 37.82512 10646 ft 200 kts 123°
2026-04-28 14:38 55.16419 37.84268 11105 ft 172 kts 135°
2026-04-28 14:38 55.15557 37.85840 10542 ft 193 kts 137°
2026-04-28 14:39 55.14553 37.87577 10508 ft 219 kts 136°
2026-04-28 14:39 55.13447 37.89690 10615 ft 250 kts 131°
2026-04-28 14:39 55.12222 37.92189 10514 ft 293 kts 132°
2026-04-28 14:39 55.10823 37.95068 10497 ft 324 kts 131°
2026-04-28 14:40 55.09340 37.98169 10507 ft 348 kts 131°
2026-04-28 14:40 55.08299 38.00367 10483 ft 360 kts 130°
2026-04-28 14:40 55.06130 38.05049 10485 ft 377 kts 129°
2026-04-28 14:40 55.04501 38.08652 10484 ft 385 kts 129°
2026-04-28 14:41 55.02857 38.12339 10690 ft 383 kts 130°
2026-04-28 14:41 55.00833 38.15178 10895 ft 373 kts 157°
2026-04-28 14:41 54.98518 38.16836 11156 ft 343 kts 158°
2026-04-28 14:41 54.96555 38.18722 11357 ft 304 kts 152°
2026-04-28 14:42 54.94878 38.20565 11543 ft 270 kts 148°
2026-04-28 14:42 54.93465 38.22409 11727 ft 239 kts 144°
2026-04-28 14:42 54.92265 38.24180 11804 ft 209 kts 141°
2026-04-28 14:42 54.91277 38.25756 11724 ft 188 kts 135°
2026-04-28 14:43 54.90551 38.27737 10946 ft 210 kts 105°
2026-04-28 14:43 54.90157 38.30137 10565 ft 204 kts 102°
2026-04-28 14:43 54.89819 38.32702 10243 ft 231 kts 98°
2026-04-28 14:43 54.89241 38.35296 10779 ft 243 kts 127°
2026-04-28 14:44 54.87849 38.37152 10760 ft 268 kts 160°
2026-04-28 14:44 54.86015 38.38440 10779 ft 300 kts 161°
2026-04-28 14:44 54.84135 38.40371 10715 ft 333 kts 143°
2026-04-28 14:44 54.82566 38.43484 10733 ft 353 kts 124°
2026-04-28 14:45 54.81356 38.47224 10874 ft 361 kts 119°
2026-04-28 14:45 54.80195 38.51029 11111 ft 348 kts 117°
2026-04-28 14:45 54.79131 38.54563 11315 ft 313 kts 118°
2026-04-28 14:45 54.78118 38.57644 11518 ft 277 kts 122°
2026-04-28 14:46 54.77211 38.60350 11724 ft 244 kts 120°
2026-04-28 14:46 54.76380 38.62732 11720 ft 217 kts 129°
2026-04-28 14:46 54.75421 38.64444 11714 ft 183 kts 144°
2026-04-28 14:46 54.74428 38.65683 11251 ft 183 kts 158°
2026-04-28 14:47 54.73215 38.66660 10301 ft 209 kts 163°
2026-04-28 14:47 54.71902 38.67744 10674 ft 211 kts 155°
2026-04-28 14:47 54.70519 38.69176 10139 ft 266 kts 155°
2026-04-28 14:47 54.68834 38.70937 10122 ft 298 kts 152°
2026-04-28 14:48 54.67005 38.72936 10106 ft 323 kts 152°
2026-04-28 14:48 54.65057 38.75055 10113 ft 341 kts 153°
2026-04-28 14:48 54.62984 38.77294 10095 ft 355 kts 152°
2026-04-28 14:48 54.60871 38.79556 10080 ft 363 kts 152°
2026-04-28 14:49 54.58677 38.81899 10078 ft 368 kts 151°
2026-04-28 14:49 54.56485 38.84224 10081 ft 371 kts 152°
2026-04-28 14:49 54.54309 38.86518 10101 ft 372 kts 152°
2026-04-28 14:49 54.52068 38.88847 10083 ft 373 kts 153°
2026-04-28 14:50 54.49843 38.91163 10076 ft 373 kts 152°
2026-04-28 14:50 54.47620 38.93484 10100 ft 372 kts 150°
2026-04-28 14:50 54.45676 38.96447 10073 ft 377 kts 132°
2026-04-28 14:50 54.44122 39.00045 10107 ft 375 kts 127°
2026-04-28 14:51 54.42591 39.03644 10098 ft 375 kts 127°
2026-04-28 14:51 54.41082 39.07244 10093 ft 373 kts 128°
2026-04-28 14:51 54.39540 39.10875 10115 ft 372 kts 128°
2026-04-28 14:51 54.38017 39.14488 10113 ft 371 kts 129°
2026-04-28 14:52 54.36503 39.18042 10097 ft 370 kts 128°
2026-04-28 14:52 54.34997 39.21590 10130 ft 369 kts 127°
2026-04-28 14:52 54.33495 39.25186 10106 ft 368 kts 125°
2026-04-28 14:52 54.32399 39.29123 10117 ft 369 kts 113°
2026-04-28 14:53 54.31412 39.33198 10112 ft 370 kts 114°
2026-04-28 14:53 54.30431 39.37236 10119 ft 369 kts 113°
2026-04-28 14:53 54.29443 39.41253 10126 ft 367 kts 115°
2026-04-28 14:53 54.28439 39.45262 10107 ft 367 kts 114°
2026-04-28 14:54 54.27465 39.49241 10109 ft 366 kts 113°
2026-04-28 14:54 54.26460 39.53273 10117 ft 364 kts 114°
2026-04-28 14:54 54.25483 39.57206 10116 ft 363 kts 114°
2026-04-28 14:54 54.24488 39.61214 10115 ft 363 kts 113°
2026-04-28 14:55 54.23510 39.65176 10121 ft 361 kts 115°
2026-04-28 14:55 54.22523 39.69123 10082 ft 360 kts 115°
2026-04-28 14:55 54.21572 39.73055 10100 ft 358 kts 115°
2026-04-28 14:55 54.20605 39.76950 10140 ft 356 kts 115°
2026-04-28 14:56 54.19652 39.80811 10119 ft 356 kts 115°
2026-04-28 14:56 54.18681 39.84721 10116 ft 355 kts 114°
2026-04-28 14:56 54.17734 39.88587 10136 ft 354 kts 115°
2026-04-28 14:56 54.16788 39.92419 10110 ft 354 kts 115°
2026-04-28 14:57 54.15837 39.96312 10115 ft 353 kts 115°
2026-04-28 14:57 54.15639 39.97122 10113 ft 353 kts 115°
2026-04-28 14:58 54.14875 40.00228 10110 ft 354 kts 115°
2026-04-28 14:58 54.13929 40.04092 10099 ft 354 kts 114°
2026-04-28 14:58 54.12985 40.07928 10119 ft 353 kts 115°
2026-04-28 14:58 54.12471 40.10054 10115 ft 352 kts 114°
2026-04-28 14:59 54.11597 40.13710 10095 ft 351 kts 113°
2026-04-28 14:59 54.10887 40.17683 10119 ft 352 kts 107°
2026-04-28 14:59 54.10191 40.21729 10113 ft 353 kts 108°
2026-04-28 14:59 54.09502 40.25708 10122 ft 354 kts 108°
2026-04-28 15:00 54.08793 40.29742 10109 ft 355 kts 108°
2026-04-28 15:00 54.08084 40.33759 10123 ft 356 kts 108°
2026-04-28 15:00 54.07370 40.37758 10107 ft 356 kts 109°
2026-04-28 15:00 54.06657 40.41763 10102 ft 357 kts 109°
2026-04-28 15:01 54.05949 40.45750 10107 ft 357 kts 108°
2026-04-28 15:01 54.05426 40.48679 10108 ft 357 kts 109°
2026-04-28 15:02 54.04711 40.52698 10292 ft 352 kts 109°
2026-04-28 15:02 54.04008 40.56648 10558 ft 346 kts 109°
2026-04-28 15:02 54.03320 40.60518 10808 ft 343 kts 109°
2026-04-28 15:02 54.02644 40.64346 11060 ft 330 kts 109°
2026-04-28 15:03 54.02015 40.67868 11260 ft 293 kts 110°
2026-04-28 15:03 54.01449 40.70887 11425 ft 246 kts 112°
2026-04-28 15:03 54.00976 40.73392 11511 ft 194 kts 113°
2026-04-28 15:03 54.00593 40.75418 10906 ft 178 kts 116°
2026-04-28 15:04 54.00191 40.77349 9946 ft 184 kts 114°
2026-04-28 15:04 53.99798 40.79544 9513 ft 212 kts 111°
2026-04-28 15:04 53.99430 40.81848 9817 ft 186 kts 106°
2026-04-28 15:04 53.99281 40.83985 9963 ft 188 kts 94°
2026-04-28 15:05 53.99268 40.86281 9719 ft 203 kts 94°
2026-04-28 15:05 53.99255 40.87926 9792 ft 197 kts 91°
2026-04-28 15:05 53.99264 40.88750 9901 ft 191 kts 90°
2026-04-28 15:06 53.99400 40.90995 9924 ft 192 kts 76°
2026-04-28 15:06 53.99704 40.93105 9370 ft 180 kts 74°
2026-04-28 15:06 53.99993 40.95074 8470 ft 173 kts 77°
2026-04-28 15:06 54.00230 40.97185 7855 ft 185 kts 79°
2026-04-28 15:07 54.00444 40.99232 7940 ft 181 kts 78°
2026-04-28 15:07 54.00674 41.01434 7800 ft 192 kts 79°
2026-04-28 15:07 54.00912 41.03656 8005 ft 188 kts 77°
2026-04-28 15:07 54.01223 41.05848 8085 ft 194 kts 72°
2026-04-28 15:08 54.01635 41.08027 8219 ft 193 kts 68°
2026-04-28 15:08 54.02077 41.10052 7983 ft 179 kts 66°
2026-04-28 15:08 54.02405 41.12042 7006 ft 187 kts 71°
2026-04-28 15:08 54.02699 41.14024 5842 ft 213 kts 75°
2026-04-28 15:09 54.02801 41.14825 5541 ft 210 kts 75°
2026-04-28 15:10 54.02956 41.16040 5284 ft 193 kts 74°
2026-04-28 15:10 54.03002 41.16394 5210 ft 190 kts 73°
2026-04-28 15:10 54.03262 41.18459 4603 ft 168 kts 76°
2026-04-28 15:10 54.03458 41.20382 3778 ft 174 kts 78°
2026-04-28 15:11 54.03669 41.22556 3483 ft 189 kts 76°
2026-04-28 15:11 54.03862 41.24236 4297 ft 136 kts 70°
2026-04-28 15:11 54.04176 41.26212 3602 ft 210 kts 71°
2026-04-28 15:11 54.04554 41.28455 4334 ft 172 kts 66°
2026-04-28 15:12 54.04950 41.30122 4911 ft 155 kts 55°
2026-04-28 15:12 54.05491 41.31966 4684 ft 191 kts 57°
2026-04-28 15:12 54.06015 41.33898 5260 ft 170 kts 59°
2026-04-28 15:12 54.06484 41.35892 5082 ft 226 kts 64°
2026-04-28 15:13 54.06704 41.36905 4502 ft 269 kts 67°
2026-04-28 15:13 54.07263 41.40232 3976 ft 307 kts 79°
2026-04-28 15:13 54.07235 41.44029 3930 ft 336 kts 100°
2026-04-28 15:13 54.06488 41.47862 3894 ft 354 kts 118°
2026-04-28 15:14 54.05059 41.51348 3898 ft 367 kts 135°
2026-04-28 15:14 54.03164 41.53997 3896 ft 327 kts 153°
2026-04-28 15:14 54.01262 41.55640 3895 ft 297 kts 158°
2026-04-28 15:14 53.99418 41.57303 4158 ft 303 kts 156°
2026-04-28 15:15 53.97549 41.59014 4427 ft 306 kts 156°
2026-04-28 15:15 53.95697 41.60788 4688 ft 308 kts 155°
2026-04-28 15:15 53.93832 41.62582 4948 ft 308 kts 155°
2026-04-28 15:15 53.92045 41.64326 5179 ft 277 kts 156°
2026-04-28 15:16 53.90439 41.65895 5400 ft 261 kts 158°
2026-04-28 15:16 53.88850 41.67428 5666 ft 266 kts 158°
2026-04-28 15:16 53.87292 41.69145 5918 ft 274 kts 147°
2026-04-28 15:16 53.85954 41.71510 6176 ft 281 kts 133°
2026-04-28 15:17 53.84867 41.74287 6442 ft 286 kts 127°
2026-04-28 15:17 53.83849 41.77186 6702 ft 290 kts 120°
2026-04-28 15:17 53.83149 41.80400 6964 ft 294 kts 113°
2026-04-28 15:17 53.82483 41.83711 7238 ft 302 kts 111°
2026-04-28 15:18 53.81853 41.87067 7503 ft 301 kts 111°
2026-04-28 15:18 53.81232 41.90462 7765 ft 302 kts 110°
2026-04-28 15:18 53.80620 41.93840 8024 ft 302 kts 110°
2026-04-28 15:18 53.80012 41.97255 8292 ft 304 kts 110°
2026-04-28 15:19 53.79403 42.00680 8556 ft 304 kts 110°
2026-04-28 15:19 53.78799 42.04079 8818 ft 304 kts 110°
2026-04-28 15:19 53.78190 42.07513 9082 ft 306 kts 110°
2026-04-28 15:19 53.77583 42.10940 9339 ft 307 kts 110°
2026-04-28 15:20 53.77572 42.11005 9344 ft 307 kts 110°
2026-04-28 15:20 53.77469 42.11586 9388 ft 306 kts 110°
2026-04-28 15:20 53.76857 42.15047 9651 ft 307 kts 110°
2026-04-28 15:21 53.76249 42.18498 9913 ft 307 kts 110°
2026-04-28 15:21 53.75647 42.21936 10183 ft 308 kts 110°
2026-04-28 15:21 53.75038 42.25404 10450 ft 307 kts 109°
2026-04-28 15:21 53.74427 42.28873 10717 ft 309 kts 110°
2026-04-28 15:22 53.73795 42.32466 11013 ft 332 kts 109°
2026-04-28 15:22 53.73134 42.36244 11307 ft 340 kts 109°
2026-04-28 15:22 53.72469 42.40087 11579 ft 341 kts 109°
2026-04-28 15:22 53.71804 42.43903 11904 ft 340 kts 109°
2026-04-28 15:23 53.71133 42.47771 12316 ft 343 kts 109°
2026-04-28 15:23 53.70475 42.51578 12711 ft 344 kts 109°
2026-04-28 15:23 53.69801 42.55457 13115 ft 345 kts 109°
2026-04-28 15:23 53.69100 42.59362 13520 ft 345 kts 113°
2026-04-28 15:24 53.67923 42.62813 13909 ft 339 kts 133°
2026-04-28 15:24 53.66249 42.65602 14324 ft 336 kts 144°
2026-04-28 15:24 53.64395 42.67886 14707 ft 332 kts 154°
2026-04-28 15:24 53.62297 42.69528 14847 ft 329 kts 166°
2026-04-28 15:25 53.60147 42.70639 15082 ft 326 kts 169°
2026-04-28 15:25 53.57952 42.71639 15343 ft 327 kts 171°
2026-04-28 15:25 53.55714 42.72583 15610 ft 329 kts 171°
2026-04-28 15:25 53.53497 42.73494 15966 ft 331 kts 171°
2026-04-28 15:26 53.51248 42.74401 16360 ft 333 kts 171°
2026-04-28 15:26 53.48972 42.75317 16752 ft 336 kts 171°
2026-04-28 15:26 53.46702 42.76224 17138 ft 338 kts 171°
2026-04-28 15:26 53.44425 42.77136 17525 ft 341 kts 171°
2026-04-28 15:27 53.42108 42.78058 17913 ft 343 kts 171°
2026-04-28 15:27 53.39782 42.78988 18300 ft 345 kts 171°
2026-04-28 15:27 53.37431 42.79931 18689 ft 347 kts 171°
2026-04-28 15:27 53.35092 42.80860 19071 ft 350 kts 171°
2026-04-28 15:28 53.32729 42.81804 19461 ft 351 kts 171°
2026-04-28 15:28 53.30348 42.82764 19851 ft 353 kts 171°
2026-04-28 15:28 53.27952 42.83733 20240 ft 355 kts 171°
2026-04-28 15:28 53.25539 42.84703 20627 ft 356 kts 171°
2026-04-28 15:29 53.23151 42.85664 21006 ft 357 kts 172°
2026-04-28 15:29 53.20726 42.86640 21384 ft 359 kts 172°
2026-04-28 15:29 53.18294 42.87613 21764 ft 360 kts 172°
2026-04-28 15:29 53.15844 42.88593 22142 ft 361 kts 173°
2026-04-28 15:30 53.13422 42.89566 22510 ft 362 kts 173°
2026-04-28 15:30 53.10944 42.90557 22880 ft 364 kts 173°
2026-04-28 15:30 53.08476 42.91542 23247 ft 365 kts 174°
2026-04-28 15:30 53.05997 42.92529 23604 ft 366 kts 174°
2026-04-28 15:31 53.03529 42.93524 23950 ft 366 kts 174°
2026-04-28 15:31 53.01056 42.94517 24297 ft 366 kts 175°
2026-04-28 15:31 52.98595 42.95499 24656 ft 366 kts 175°
2026-04-28 15:31 52.96115 42.96484 25014 ft 366 kts 175°
2026-04-28 15:32 52.93632 42.97469 25373 ft 365 kts 176°
2026-04-28 15:32 52.91164 42.98446 25735 ft 365 kts 176°
2026-04-28 15:32 52.88709 42.99414 26096 ft 365 kts 176°
2026-04-28 15:32 52.86266 43.00388 26461 ft 364 kts 176°
2026-04-28 15:33 52.83818 43.01364 26828 ft 363 kts 176°
2026-04-28 15:33 52.81356 43.02348 27197 ft 362 kts 176°
2026-04-28 15:33 52.78897 43.03331 27564 ft 361 kts 176°
2026-04-28 15:33 52.76472 43.04300 27930 ft 360 kts 176°
2026-04-28 15:34 52.74051 43.05265 28293 ft 359 kts 176°
2026-04-28 15:34 52.71611 43.06237 28667 ft 357 kts 176°
2026-04-28 15:34 52.69222 43.07192 29037 ft 356 kts 176°
2026-04-28 15:34 52.66820 43.08155 29410 ft 355 kts 177°
2026-04-28 15:35 52.64435 43.09106 29761 ft 353 kts 177°
2026-04-28 15:35 52.59684 43.10994 30411 ft 351 kts 177°
2026-04-28 15:35 52.57305 43.11945 30642 ft 353 kts 177°
2026-04-28 15:36 52.54920 43.12894 30845 ft 354 kts 177°
2026-04-28 15:36 52.52529 43.13848 31058 ft 355 kts 177°
2026-04-28 15:36 52.50131 43.14798 31250 ft 356 kts 177°
2026-04-28 15:36 52.47728 43.15758 31439 ft 357 kts 176°
2026-04-28 15:37 52.45309 43.16722 31620 ft 358 kts 176°
2026-04-28 15:37 52.42903 43.17685 31818 ft 358 kts 176°
2026-04-28 15:37 52.40471 43.18653 32003 ft 359 kts 176°
2026-04-28 15:37 52.38079 43.19613 32187 ft 359 kts 176°
2026-04-28 15:38 52.35657 43.20582 32372 ft 359 kts 176°
2026-04-28 15:38 52.33224 43.21554 32574 ft 359 kts 175°
2026-04-28 15:38 52.30786 43.22527 32769 ft 359 kts 175°
2026-04-28 15:38 52.28375 43.23487 32969 ft 358 kts 175°
2026-04-28 15:39 52.25957 43.24458 33170 ft 358 kts 175°
2026-04-28 15:39 52.23535 43.25425 33366 ft 358 kts 175°
2026-04-28 15:39 52.21154 43.26380 33557 ft 358 kts 175°
2026-04-28 15:39 52.18752 43.27343 33767 ft 357 kts 175°
2026-04-28 15:40 52.16324 43.28314 33985 ft 357 kts 175°
2026-04-28 15:40 52.13952 43.29267 34195 ft 356 kts 175°
2026-04-28 15:40 52.11538 43.30239 34406 ft 356 kts 175°
2026-04-28 15:40 52.09155 43.31188 34625 ft 355 kts 175°
2026-04-28 15:41 52.06774 43.32137 34840 ft 354 kts 174°
2026-04-28 15:41 52.04390 43.33086 34954 ft 357 kts 174°
2026-04-28 15:41 51.99475 43.35055 34979 ft 369 kts 174°
2026-04-28 15:42 51.94445 43.37074 34980 ft 378 kts 174°
2026-04-28 15:42 51.89292 43.39135 34973 ft 386 kts 173°
2026-04-28 15:43 51.84013 43.41254 34971 ft 393 kts 173°
2026-04-28 15:43 51.78661 43.43401 34984 ft 398 kts 173°
2026-04-28 15:44 51.73274 43.45561 34976 ft 403 kts 173°
2026-04-28 15:44 51.67838 43.47740 34977 ft 406 kts 173°
2026-04-28 15:45 51.62353 43.49935 34980 ft 408 kts 173°
2026-04-28 15:45 51.56851 43.52147 34977 ft 410 kts 173°
2026-04-28 15:46 51.51303 43.54367 34988 ft 412 kts 173°
2026-04-28 15:46 51.45741 43.56597 34986 ft 413 kts 173°
2026-04-28 15:47 51.40181 43.58828 34986 ft 414 kts 173°
2026-04-28 15:47 51.34611 43.61060 34996 ft 415 kts 173°
2026-04-28 15:48 51.29040 43.63292 35000 ft 416 kts 173°
2026-04-28 15:48 51.23402 43.65548 35006 ft 416 kts 173°
2026-04-28 15:49 51.17797 43.67796 35001 ft 416 kts 173°
2026-04-28 15:49 51.12226 43.70027 34995 ft 415 kts 173°
2026-04-28 15:50 51.06637 43.72276 35012 ft 415 kts 173°
2026-04-28 15:50 51.01028 43.74523 35012 ft 415 kts 173°
2026-04-28 15:51 50.95433 43.76762 35015 ft 414 kts 173°
2026-04-28 15:51 50.89875 43.78992 35016 ft 414 kts 173°
2026-04-28 15:52 50.84285 43.81235 35024 ft 415 kts 173°
2026-04-28 15:52 50.78715 43.83471 35031 ft 415 kts 173°
2026-04-28 15:53 50.73119 43.85714 35027 ft 415 kts 173°
2026-04-28 15:53 50.67521 43.87963 35040 ft 416 kts 173°
2026-04-28 15:54 50.61931 43.90205 35034 ft 416 kts 173°
2026-04-28 15:54 50.56324 43.92452 35037 ft 416 kts 173°
2026-04-28 15:55 50.50744 43.94693 35039 ft 416 kts 173°
2026-04-28 15:55 50.45149 43.96940 35049 ft 416 kts 173°
2026-04-28 15:56 50.39585 43.99176 35045 ft 416 kts 173°
2026-04-28 15:56 50.33965 44.01429 35056 ft 416 kts 173°
2026-04-28 15:57 50.28376 44.03673 35059 ft 416 kts 173°
2026-04-28 15:57 50.22777 44.05920 35057 ft 416 kts 173°
2026-04-28 15:58 50.17144 44.08182 35065 ft 416 kts 173°
2026-04-28 15:58 50.11543 44.10434 35053 ft 416 kts 173°
2026-04-28 15:59 50.05918 44.12693 35064 ft 416 kts 173°
2026-04-28 15:59 50.00264 44.14963 35054 ft 416 kts 173°
2026-04-28 16:00 49.94687 44.17204 35065 ft 416 kts 173°
2026-04-28 16:00 49.89079 44.19458 35069 ft 416 kts 173°
2026-04-28 16:01 49.83441 44.21722 35078 ft 416 kts 173°
2026-04-28 16:01 49.77839 44.23968 35075 ft 417 kts 173°
2026-04-28 16:02 49.72210 44.26227 35092 ft 417 kts 173°
2026-04-28 16:02 49.66625 44.28476 35090 ft 417 kts 173°
2026-04-28 16:03 49.61019 44.30732 35094 ft 418 kts 173°
2026-04-28 16:03 49.55367 44.32390 35093 ft 406 kts 185°
2026-04-28 16:04 49.49745 44.32605 35095 ft 405 kts 186°
2026-04-28 16:04 49.44122 44.32739 35091 ft 405 kts 186°
2026-04-28 16:05 49.38526 44.32870 35096 ft 405 kts 186°
2026-04-28 16:05 49.32870 44.33007 35100 ft 405 kts 186°
2026-04-28 16:06 49.27269 44.33144 35097 ft 405 kts 186°
2026-04-28 16:06 49.21632 44.33282 35098 ft 405 kts 186°
2026-04-28 16:07 49.16020 44.33423 35103 ft 405 kts 186°
2026-04-28 16:08 49.07576 44.33629 35098 ft 405 kts 186°
2026-04-28 16:08 49.01962 44.33762 35105 ft 405 kts 186°
2026-04-28 16:09 48.93476 44.33971 35114 ft 405 kts 186°
2026-04-28 16:10 48.85030 44.34179 35117 ft 406 kts 186°
2026-04-28 16:10 48.76584 44.34367 35119 ft 406 kts 186°
2026-04-28 16:11 48.65315 44.34305 35125 ft 406 kts 187°
2026-04-28 16:12 48.56847 44.34269 35132 ft 406 kts 187°
2026-04-28 16:13 48.48403 44.34237 35125 ft 406 kts 187°
2026-04-28 16:14 48.37099 44.34194 35136 ft 407 kts 187°
2026-04-28 16:15 48.25822 44.34153 35139 ft 407 kts 186°
2026-04-28 16:15 48.20163 44.34132 35140 ft 407 kts 187°
2026-04-28 16:16 48.11676 44.34098 35150 ft 407 kts 187°
2026-04-28 16:17 48.03199 44.34070 35149 ft 407 kts 187°
2026-04-28 16:17 47.97684 44.33131 35140 ft 392 kts 205°
2026-04-28 16:18 47.92869 44.29672 35146 ft 385 kts 216°
2026-04-28 16:18 47.88887 44.24498 35152 ft 379 kts 230°
2026-04-28 16:19 47.85509 44.18494 35151 ft 379 kts 233°
2026-04-28 16:19 47.82600 44.12876 35153 ft 379 kts 234°
2026-04-28 16:20 47.79674 44.07082 35148 ft 380 kts 234°
2026-04-28 16:20 47.76531 44.00815 34940 ft 385 kts 234°
2026-04-28 16:21 47.74910 43.97567 34618 ft 393 kts 234°
2026-04-28 16:21 47.73277 43.94286 34317 ft 400 kts 234°
2026-04-28 16:21 47.71601 43.90924 33979 ft 403 kts 234°
2026-04-28 16:21 47.69938 43.87578 33634 ft 403 kts 235°
2026-04-28 16:22 47.68318 43.84333 33285 ft 385 kts 235°
2026-04-28 16:22 47.66774 43.81230 32925 ft 363 kts 235°
2026-04-28 16:22 47.65324 43.78317 32558 ft 345 kts 235°
2026-04-28 16:22 47.63928 43.75505 32194 ft 338 kts 236°
2026-04-28 16:23 47.62504 43.72641 31813 ft 350 kts 236°
2026-04-28 16:23 47.61065 43.69740 31353 ft 353 kts 236°
2026-04-28 16:23 47.59630 43.66845 30884 ft 352 kts 236°
2026-04-28 16:23 47.58170 43.63905 30352 ft 352 kts 236°
2026-04-28 16:24 47.56757 43.61050 29810 ft 340 kts 236°
2026-04-28 16:24 47.55383 43.58263 29255 ft 327 kts 236°
2026-04-28 16:24 47.54071 43.55608 28711 ft 321 kts 236°
2026-04-28 16:24 47.52762 43.52958 28181 ft 325 kts 236°
2026-04-28 16:25 47.51429 43.50257 27645 ft 324 kts 236°
2026-04-28 16:25 47.50093 43.47562 27103 ft 321 kts 236°
2026-04-28 16:25 47.48788 43.44917 26564 ft 318 kts 236°
2026-04-28 16:25 47.47483 43.42274 26018 ft 315 kts 236°
2026-04-28 16:26 47.46204 43.39684 25482 ft 313 kts 237°
2026-04-28 16:26 47.44943 43.37123 24952 ft 310 kts 237°
2026-04-28 16:26 47.43670 43.34546 24416 ft 308 kts 236°
2026-04-28 16:26 47.42420 43.32013 23896 ft 305 kts 236°
2026-04-28 16:27 47.41178 43.29490 23371 ft 304 kts 236°
2026-04-28 16:27 47.39957 43.27002 22856 ft 301 kts 236°
2026-04-28 16:27 47.37525 43.22057 21814 ft 296 kts 236°
2026-04-28 16:28 47.36337 43.19641 21302 ft 294 kts 236°
2026-04-28 16:28 47.35149 43.17224 20784 ft 292 kts 236°
2026-04-28 16:28 47.33961 43.14796 20273 ft 290 kts 236°
2026-04-28 16:28 47.32793 43.12420 20143 ft 283 kts 236°
2026-04-28 16:29 47.30456 43.07652 20158 ft 288 kts 236°
2026-04-28 16:29 47.28112 43.02868 20161 ft 288 kts 236°
2026-04-28 16:30 47.26936 43.00466 20157 ft 289 kts 236°
2026-04-28 16:30 47.25774 42.98100 20153 ft 288 kts 236°
2026-04-28 16:30 47.24594 42.95693 20158 ft 289 kts 237°
2026-04-28 16:30 47.23424 42.93301 20160 ft 289 kts 236°
2026-04-28 16:31 47.22253 42.90903 20159 ft 289 kts 237°
2026-04-28 16:31 47.21076 42.88500 20157 ft 289 kts 237°
2026-04-28 16:31 47.19903 42.86096 20156 ft 289 kts 237°
2026-04-28 16:31 47.18742 42.83709 20152 ft 289 kts 237°
2026-04-28 16:32 47.17594 42.81314 20149 ft 287 kts 240°
2026-04-28 16:32 47.16689 42.75616 20157 ft 290 kts 264°
2026-04-28 16:32 47.16568 42.72676 20156 ft 289 kts 265°
2026-04-28 16:33 47.16474 42.69736 20159 ft 290 kts 265°
2026-04-28 16:33 47.16417 42.67769 20155 ft 290 kts 265°
2026-04-28 16:33 47.16309 42.63866 20154 ft 289 kts 265°
2026-04-28 16:33 47.16229 42.60923 20155 ft 290 kts 265°
2026-04-28 16:34 47.16149 42.57958 20156 ft 289 kts 265°
2026-04-28 16:34 47.16072 42.55005 20155 ft 289 kts 265°
2026-04-28 16:34 47.15994 42.52042 20158 ft 289 kts 265°
2026-04-28 16:34 47.15917 42.49115 20156 ft 288 kts 266°
2026-04-28 16:35 47.15839 42.46167 20160 ft 289 kts 266°
2026-04-28 16:35 47.15764 42.43184 20163 ft 289 kts 266°
2026-04-28 16:35 47.15691 42.40215 20159 ft 290 kts 266°
2026-04-28 16:35 47.15619 42.37269 20155 ft 290 kts 266°
2026-04-28 16:36 47.15548 42.34301 20160 ft 289 kts 265°
2026-04-28 16:36 47.15473 42.31340 20164 ft 289 kts 265°
2026-04-28 16:36 47.15403 42.28397 20164 ft 289 kts 265°
2026-04-28 16:36 47.15332 42.25431 20161 ft 290 kts 265°
2026-04-28 16:37 47.15263 42.22480 20165 ft 290 kts 265°
2026-04-28 16:37 47.15192 42.19512 20162 ft 290 kts 265°
2026-04-28 16:37 47.15125 42.16555 20166 ft 290 kts 265°
2026-04-28 16:38 47.14993 42.10638 20164 ft 289 kts 265°
2026-04-28 16:38 47.14925 42.07712 20164 ft 289 kts 265°
2026-04-28 16:38 47.14862 42.04773 20160 ft 289 kts 265°
2026-04-28 16:38 47.14799 42.01792 20168 ft 289 kts 266°
2026-04-28 16:39 47.14735 41.98835 20161 ft 289 kts 266°
2026-04-28 16:39 47.14671 41.95898 20160 ft 290 kts 265°
2026-04-28 16:39 47.14610 41.92950 20158 ft 288 kts 266°
2026-04-28 16:39 47.14549 41.89954 20160 ft 289 kts 265°
2026-04-28 16:40 47.14491 41.87016 20160 ft 290 kts 265°
2026-04-28 16:40 47.14429 41.84056 20157 ft 290 kts 266°
2026-04-28 16:40 47.14368 41.81114 20155 ft 290 kts 266°
2026-04-28 16:40 47.14307 41.78130 20009 ft 293 kts 266°
2026-04-28 16:41 47.14249 41.75182 19617 ft 289 kts 266°
2026-04-28 16:41 47.14193 41.72217 19220 ft 285 kts 266°
2026-04-28 16:41 47.14138 41.69319 18829 ft 284 kts 266°
2026-04-28 16:41 47.14086 41.66447 18441 ft 283 kts 266°
2026-04-28 16:42 47.14033 41.63530 18099 ft 281 kts 266°
2026-04-28 16:42 47.13981 41.60676 17846 ft 281 kts 266°
2026-04-28 16:42 47.13927 41.57812 17593 ft 282 kts 266°
2026-04-28 16:42 47.13874 41.54940 17335 ft 282 kts 266°
2026-04-28 16:43 47.13849 41.52088 17077 ft 281 kts 271°
2026-04-28 16:43 47.14348 41.49299 16728 ft 288 kts 289°
2026-04-28 16:43 47.15172 41.46630 16349 ft 287 kts 290°
2026-04-28 16:43 47.16007 41.44016 15968 ft 285 kts 291°
2026-04-28 16:44 47.16859 41.41370 15579 ft 284 kts 291°
2026-04-28 16:44 47.17707 41.38739 15191 ft 282 kts 291°
2026-04-28 16:44 47.18542 41.36160 14806 ft 281 kts 291°
2026-04-28 16:44 47.19373 41.33586 14427 ft 279 kts 291°
2026-04-28 16:45 47.20197 41.31032 14052 ft 277 kts 291°
2026-04-28 16:45 47.21027 41.28456 13677 ft 276 kts 291°
2026-04-28 16:45 47.21846 41.25914 13303 ft 275 kts 291°
2026-04-28 16:45 47.22657 41.23392 12928 ft 274 kts 291°
2026-04-28 16:46 47.23463 41.20876 12555 ft 273 kts 291°
2026-04-28 16:46 47.24266 41.18361 12180 ft 272 kts 291°
2026-04-28 16:46 47.25075 41.15829 11796 ft 270 kts 292°
2026-04-28 16:46 47.25869 41.13337 11418 ft 270 kts 292°
2026-04-28 16:47 47.26660 41.10847 11041 ft 269 kts 292°
2026-04-28 16:47 47.27453 41.08358 10657 ft 265 kts 293°
2026-04-28 16:47 47.28219 41.05954 10273 ft 256 kts 293°
2026-04-28 16:47 47.28964 41.03620 10145 ft 248 kts 293°
2026-04-28 16:48 47.29697 41.01321 10164 ft 253 kts 293°
2026-04-28 16:48 47.30451 40.98963 10163 ft 255 kts 293°
2026-04-28 16:48 47.31209 40.96600 10159 ft 254 kts 293°
2026-04-28 16:48 47.31958 40.94260 10157 ft 254 kts 293°
2026-04-28 16:49 47.32714 40.91900 10157 ft 253 kts 293°
2026-04-28 16:49 47.33466 40.89543 10155 ft 254 kts 293°
2026-04-28 16:49 47.34206 40.87218 10158 ft 253 kts 292°
2026-04-28 16:49 47.34952 40.84871 10157 ft 253 kts 293°
2026-04-28 16:50 47.35700 40.82509 10154 ft 253 kts 293°
2026-04-28 16:50 47.36439 40.80169 10154 ft 254 kts 293°
2026-04-28 16:50 47.37190 40.77791 10157 ft 255 kts 293°
2026-04-28 16:50 47.37932 40.75434 10154 ft 254 kts 293°
2026-04-28 16:51 47.38679 40.73065 10156 ft 254 kts 293°
2026-04-28 16:51 47.39427 40.70693 10124 ft 255 kts 293°
2026-04-28 16:51 47.40175 40.68324 9762 ft 256 kts 293°
2026-04-28 16:51 47.40923 40.65946 9368 ft 253 kts 293°
2026-04-28 16:52 47.41660 40.63600 8981 ft 251 kts 294°
2026-04-28 16:52 47.42388 40.61272 8600 ft 257 kts 294°
2026-04-28 16:52 47.43141 40.58867 8226 ft 260 kts 294°
2026-04-28 16:52 47.43889 40.56485 7836 ft 253 kts 294°
2026-04-28 16:53 47.44689 40.54203 7429 ft 247 kts 304°
2026-04-28 16:53 47.45953 40.52533 7034 ft 246 kts 326°
2026-04-28 16:53 47.47504 40.51471 6640 ft 245 kts 340°
2026-04-28 16:53 47.49146 40.50911 6255 ft 244 kts 346°
2026-04-28 16:54 47.50822 40.50440 5860 ft 242 kts 347°
2026-04-28 16:54 47.52467 40.50017 5472 ft 241 kts 347°
2026-04-28 16:54 47.54126 40.49605 5082 ft 240 kts 347°
2026-04-28 16:54 47.55770 40.49196 4695 ft 239 kts 347°
2026-04-28 16:55 47.57400 40.48792 4311 ft 239 kts 347°
2026-04-28 16:55 47.59014 40.48358 3926 ft 237 kts 341°
2026-04-28 16:55 47.60380 40.47229 3617 ft 214 kts 314°
2026-04-28 16:55 47.61162 40.45502 3212 ft 199 kts 288°
2026-04-28 16:56 47.61291 40.43507 2803 ft 190 kts 263°
2026-04-28 16:56 47.61084 40.41643 2490 ft 175 kts 259°
2026-04-28 16:56 47.60858 40.39948 2163 ft 159 kts 258°
2026-04-28 16:56 47.60649 40.38439 2100 ft 141 kts 258°
2026-04-28 16:57 47.60448 40.37009 2138 ft 144 kts 258°
2026-04-28 16:57 47.60241 40.35537 1965 ft 146 kts 258°
2026-04-28 16:57 47.60035 40.34082 1729 ft 146 kts 257°
2026-04-28 16:57 47.59830 40.32632 1620 ft 143 kts 258°
2026-04-28 16:58 47.59623 40.31181 1632 ft 143 kts 257°
2026-04-28 16:58 47.59421 40.29746 1632 ft 144 kts 257°
2026-04-28 16:58 47.59214 40.28275 1633 ft 144 kts 258°
2026-04-28 16:58 47.59011 40.26822 1633 ft 144 kts 257°
2026-04-28 16:59 47.58805 40.25360 1633 ft 144 kts 258°
2026-04-28 16:59 47.58599 40.23891 1635 ft 145 kts 257°
2026-04-28 16:59 47.58392 40.22424 1635 ft 145 kts 257°
2026-04-28 16:59 47.58184 40.20961 1634 ft 145 kts 257°
2026-04-28 17:00 47.57977 40.19505 1638 ft 144 kts 257°
2026-04-28 17:00 47.57771 40.18053 1636 ft 145 kts 257°
2026-04-28 17:00 47.57562 40.16590 1634 ft 145 kts 258°
2026-04-28 17:00 47.57354 40.15139 1635 ft 144 kts 257°
2026-04-28 17:01 47.57145 40.13682 1636 ft 144 kts 258°
2026-04-28 17:01 47.56936 40.12214 1634 ft 144 kts 258°
2026-04-28 17:01 47.56730 40.10764 1633 ft 144 kts 258°
2026-04-28 17:01 47.56523 40.09311 1630 ft 143 kts 257°
2026-04-28 17:02 47.56319 40.07884 1631 ft 142 kts 258°
2026-04-28 17:02 47.56096 40.06456 1634 ft 143 kts 252°
2026-04-28 17:02 47.55592 40.05173 1633 ft 144 kts 237°
2026-04-28 17:02 47.55006 40.03965 1626 ft 134 kts 236°
2026-04-28 17:03 47.53983 40.01886 1552 ft 127 kts 236°
2026-04-28 17:03 47.53463 40.00824 1375 ft 126 kts 236°
2026-04-28 17:03 47.52951 39.99773 1207 ft 127 kts 236°
2026-04-28 17:04 47.51903 39.97637 815 ft 128 kts 234°
2026-04-28 17:04 47.51371 39.96584 678 ft 129 kts 236°
2026-04-28 17:05 47.50362 39.94476 321 ft 118 kts 236°
2026-04-28 17:05 47.49921 39.93561 263 ft 89 kts 238°
2026-04-28 17:05 47.49649 39.92994 257 ft 51 kts 235°
2026-04-28 17:06 47.49400 39.92509 242 ft 19 kts 205°
2026-04-28 17:06 47.49345 39.92504 239 ft 19 kts 156°
2026-04-28 17:06 47.49265 39.92644 233 ft 4 kts 150°
2026-04-28 17:07 47.49205 39.92683 228 ft 14 kts 156°
2026-04-28 17:07 47.49124 39.92767 222 ft 13 kts 149°
2026-04-28 17:07 47.49044 39.92745 215 ft 14 kts 236°
2026-04-28 17:07 47.49001 39.92660 212 ft 9 kts 221°
2026-04-28 17:08 47.48953 39.92676 210 ft 9 kts 138°
2026-04-28 17:08 47.48918 39.92714 209 ft 6 kts 150°
2026-04-28 17:08 47.48914 39.92717 208 ft 0 kts 149°